| time (UTC) | temp F | wind direction | speed knots | gust knots | rain 1hr in | rain 24hr in | rain mn in | humidity % | barometer mb |
| 20260504235020 | 73 | 46 | 10.4 | 22.6 | 0.00 | 0.00 | 0.00 | 30 | 1004.2 |
| 20260504234539 | 73 | 16 | 11.3 | 20.9 | 0.00 | 0.00 | 0.00 | 27 | 1004.2 |
| 20260504234021 | 73 | 63 | 8.7 | 15.6 | 0.00 | 0.00 | 0.00 | 26 | 1004.1 |
| 20260504233521 | 74 | 57 | 3.5 | 15.6 | 0.00 | 0.00 | 0.00 | 25 | 1004.1 |
| 20260504233035 | 74 | 349 | 5.2 | 15.6 | 0.00 | 0.00 | 0.00 | 25 | 1004.1 |
| 20260504232523 | 74 | 13 | 7.0 | 20.9 | 0.00 | 0.00 | 0.00 | 24 | 1004.2 |
| 20260504232021 | 74 | 323 | 7.0 | 20.9 | 0.00 | 0.00 | 0.00 | 24 | 1004.0 |
| 20260504231542 | 75 | 18 | 11.3 | 20.0 | 0.00 | 0.00 | 0.00 | 23 | 1003.7 |
| 20260504231020 | 75 | 352 | 9.6 | 18.2 | 0.00 | 0.00 | 0.00 | 22 | 1003.6 |
| 20260504230520 | 76 | 34 | 8.7 | 18.2 | 0.00 | 0.00 | 0.00 | 21 | 1003.5 |
| 20260504230046 | 76 | 347 | 7.0 | 15.6 | 0.00 | 0.00 | 0.00 | 21 | 1003.4 |
| 20260504225521 | 76 | 292 | 3.5 | 11.3 | 0.00 | 0.00 | 0.00 | 21 | 1003.3 |
| 20260504225021 | 76 | 196 | 3.5 | 11.3 | 0.00 | 0.00 | 0.00 | 20 | 1003.1 |
| 20260504224540 | 77 | 208 | 6.1 | 11.3 | 0.00 | 0.00 | 0.00 | 21 | 1003.0 |
| 20260504224020 | 77 | 182 | 7.0 | 13.9 | 0.00 | 0.00 | 0.00 | 20 | 1003.0 |
| 20260504223519 | 77 | 176 | 7.8 | 13.9 | 0.00 | 0.00 | 0.00 | 21 | 1002.9 |
| 20260504223037 | 78 | 221 | 7.0 | 10.4 | 0.00 | 0.00 | 0.00 | 19 | 1002.9 |
| 20260504222523 | 78 | 240 | 4.3 | 7.8 | 0.00 | 0.00 | 0.00 | 19 | 1002.9 |
| 20260504222018 | 79 | 254 | 3.5 | 9.6 | 0.00 | 0.00 | 0.00 | 18 | 1002.9 |
| 20260504221551 | 79 | 352 | 4.3 | 9.6 | 0.00 | 0.00 | 0.00 | 19 | 1002.9 |
| 20260504221019 | 79 | 314 | 4.3 | 9.6 | 0.00 | 0.00 | 0.00 | 18 | 1002.9 |
| 20260504220520 | 79 | 307 | 5.2 | 12.2 | 0.00 | 0.00 | 0.00 | 18 | 1002.9 |
| 20260504220035 | 79 | 312 | 3.5 | 12.2 | 0.00 | 0.00 | 0.00 | 17 | 1002.9 |
| 20260504215522 | 80 | 304 | 7.0 | 12.2 | 0.00 | 0.00 | 0.00 | 17 | 1002.9 |
| 20260504215035 | 80 | 298 | 5.2 | 7.8 | 0.00 | 0.00 | 0.00 | 18 | 1002.9 |
| 20260504214543 | 80 | 333 | 1.7 | 7.8 | 0.00 | 0.00 | 0.00 | 18 | 1002.9 |
| 20260504214021 | 79 | 229 | 2.6 | 11.3 | 0.00 | 0.00 | 0.00 | 18 | 1003.0 |
| 20260504213521 | 79 | 238 | 4.3 | 12.2 | 0.00 | 0.00 | 0.00 | 18 | 1003.1 |
| 20260504213057 | 80 | 311 | 6.1 | 12.2 | 0.00 | 0.00 | 0.00 | 18 | 1003.1 |
| 20260504212519 | 80 | 349 | 3.5 | 9.6 | 0.00 | 0.00 | 0.00 | 18 | 1003.1 |
| 20260504212021 | 81 | 300 | 2.6 | 8.7 | 0.00 | 0.00 | 0.00 | 18 | 1003.3 |
| 20260504211541 | 81 | 301 | 3.5 | 9.6 | 0.00 | 0.00 | 0.00 | 18 | 1003.3 |
| 20260504211022 | 80 | 347 | 4.3 | 9.6 | 0.00 | 0.00 | 0.00 | 18 | 1003.3 |
| 20260504210522 | 81 | 5 | 3.5 | 10.4 | 0.00 | 0.00 | 0.00 | 18 | 1003.5 |
| 20260504210036 | 81 | 344 | 6.1 | 10.4 | 0.00 | 0.00 | 0.00 | 18 | 1003.5 |
| 20260504205522 | 83 | 309 | 4.3 | 9.6 | 0.00 | 0.00 | 0.00 | 18 | 1003.5 |
| 20260504205019 | 82 | 96 | 3.5 | 8.7 | 0.00 | 0.00 | 0.00 | 18 | 1003.6 |
| 20260504204535 | 82 | 58 | 4.3 | 8.7 | 0.00 | 0.00 | 0.00 | 20 | 1003.5 |
| 20260504204019 | 81 | 24 | 3.5 | 9.6 | 0.00 | 0.00 | 0.00 | 20 | 1003.6 |
| 20260504203524 | 81 | 123 | 4.3 | 9.6 | 0.00 | 0.00 | 0.00 | 19 | 1003.6 |
| 20260504203048 | 80 | 5 | 3.5 | 9.6 | 0.00 | 0.00 | 0.00 | 19 | 1003.5 |
| 20260504202521 | 79 | 118 | 0.0 | 3.5 | 0.00 | 0.00 | 0.00 | 19 | 1003.7 |
| 20260504202021 | 78 | 0 | 0.9 | 9.6 | 0.00 | 0.00 | 0.00 | 18 | 1003.9 |
| 20260504201540 | 78 | 276 | 2.6 | 11.3 | 0.00 | 0.00 | 0.00 | 19 | 1004.0 |
| 20260504201021 | 78 | 294 | 6.1 | 11.3 | 0.00 | 0.00 | 0.00 | 19 | 1004.2 |
| 20260504200525 | 79 | 307 | 7.0 | 11.3 | 0.00 | 0.00 | 0.00 | 18 | 1004.2 |
| 20260504200040 | 80 | 92 | 1.7 | 7.8 | 0.00 | 0.00 | 0.00 | 19 | 1004.2 |
| 20260504195519 | 79 | 322 | 2.6 | 7.8 | 0.00 | 0.00 | 0.00 | 19 | 1004.4 |
| 20260504195019 | 79 | 291 | 4.3 | 11.3 | 0.00 | 0.00 | 0.00 | 19 | 1004.3 |
| 20260504194542 | 79 | 252 | 4.3 | 11.3 | 0.00 | 0.00 | 0.00 | 19 | 1004.4 |
| 20260504194023 | 79 | 344 | 4.3 | 11.3 | 0.00 | 0.00 | 0.00 | 18 | 1004.3 |
| 20260504193524 | 79 | 9 | 7.0 | 11.3 | 0.00 | 0.00 | 0.00 | 18 | 1004.2 |
| 20260504193035 | 79 | 341 | 3.5 | 10.4 | 0.00 | 0.00 | 0.00 | 20 | 1004.3 |
| 20260504192521 | 79 | 69 | 3.5 | 9.6 | 0.00 | 0.00 | 0.00 | 20 | 1004.4 |
| 20260504192023 | 79 | 326 | 3.5 | 9.6 | 0.00 | 0.00 | 0.00 | 20 | 1004.4 |
| 20260504191539 | 79 | 42 | 4.3 | 9.6 | 0.00 | 0.00 | 0.00 | 20 | 1004.4 |
| 20260504191021 | 78 | 352 | 3.5 | 10.4 | 0.00 | 0.00 | 0.00 | 20 | 1004.5 |
| 20260504190521 | 78 | 277 | 6.1 | 15.6 | 0.00 | 0.00 | 0.00 | 19 | 1004.6 |
| 20260504190042 | 79 | 344 | 6.1 | 15.6 | 0.00 | 0.00 | 0.00 | 19 | 1004.6 |
| 20260504185521 | 79 | 302 | 2.6 | 15.6 | 0.00 | 0.00 | 0.00 | 22 | 1004.6 |
| 20260504185025 | 79 | 0 | 1.7 | 7.0 | 0.00 | 0.00 | 0.00 | 22 | 1004.8 |
| 20260504184540 | 78 | 45 | 1.7 | 7.0 | 0.00 | 0.00 | 0.00 | 23 | 1004.8 |
| 20260504184019 | 78 | 132 | 2.6 | 7.0 | 0.00 | 0.00 | 0.00 | 22 | 1004.9 |
| 20260504183532 | 77 | 105 | 0.9 | 7.8 | 0.00 | 0.00 | 0.00 | 24 | 1005.1 |
| 20260504183035 | 77 | 185 | 2.6 | 8.7 | 0.00 | 0.00 | 0.00 | 22 | 1005.2 |
| 20260504182522 | 77 | 15 | 2.6 | 9.6 | 0.00 | 0.00 | 0.00 | 24 | 1005.4 |
| 20260504182021 | 77 | 78 | 4.3 | 9.6 | 0.00 | 0.00 | 0.00 | 25 | 1005.4 |
| 20260504181541 | 77 | 55 | 6.1 | 10.4 | 0.00 | 0.00 | 0.00 | 27 | 1005.4 |
| 20260504181027 | 76 | 146 | 5.2 | 10.4 | 0.00 | 0.00 | 0.00 | 28 | 1005.6 |
| 20260504180522 | 76 | 109 | 7.0 | 10.4 | 0.00 | 0.00 | 0.00 | 27 | 1005.6 |
| 20260504180049 | 76 | 108 | 5.2 | 8.7 | 0.00 | 0.00 | 0.00 | 27 | 1005.7 |
| 20260504175521 | 76 | 95 | 5.2 | 8.7 | 0.00 | 0.00 | 0.00 | 29 | 1005.8 |
| 20260504175024 | 76 | 69 | 2.6 | 7.8 | 0.00 | 0.00 | 0.00 | 27 | 1005.9 |
| 20260504174544 | 76 | 55 | 3.5 | 13.9 | 0.00 | 0.00 | 0.00 | 28 | 1006.0 |
| 20260504174022 | 76 | 121 | 5.2 | 13.9 | 0.00 | 0.00 | 0.00 | 28 | 1006.0 |
| 20260504173522 | 75 | 74 | 5.2 | 13.9 | 0.00 | 0.00 | 0.00 | 29 | 1006.1 |
| 20260504173038 | 75 | 41 | 3.5 | 8.7 | 0.00 | 0.00 | 0.00 | 28 | 1006.2 |
| 20260504172521 | 74 | 71 | 4.3 | 7.8 | 0.00 | 0.00 | 0.00 | 28 | 1006.2 |
| 20260504172022 | 74 | 62 | 1.7 | 7.8 | 0.00 | 0.00 | 0.00 | 29 | 1006.3 |
| 20260504171539 | 73 | 28 | 2.6 | 8.7 | 0.00 | 0.00 | 0.00 | 31 | 1006.3 |
| 20260504171021 | 73 | 360 | 3.5 | 8.7 | 0.00 | 0.00 | 0.00 | 30 | 1006.3 |
| 20260504170521 | 73 | 337 | 3.5 | 7.8 | 0.00 | 0.00 | 0.00 | 30 | 1006.4 |
| 20260504151021 | 64 | 321 | 5.2 | 10.4 | 0.00 | 0.00 | 0.00 | 42 | 1006.4 |
| 20260504150522 | 63 | 307 | 6.1 | 12.2 | 0.00 | 0.00 | 0.00 | 44 | 1006.4 |
| 20260504141023 | 55 | 321 | 7.0 | 12.2 | 0.00 | 0.00 | 0.00 | 53 | 1006.6 |
| 20260504140524 | 55 | 306 | 8.7 | 13.0 | 0.00 | 0.00 | 0.00 | 53 | 1006.6 |
| 20260504130523 | 50 | 322 | 5.2 | 12.2 | 0.00 | 0.00 | 0.00 | 65 | 1006.5 |
| 20260504110521 | 44 | 274 | 8.7 | 10.4 | 0.00 | 0.00 | 0.00 | 71 | 1006.0 |
| 20260504100519 | 47 | 269 | 9.6 | 11.3 | 0.00 | 0.00 | 0.00 | 66 | 1006.3 |
| 20260504081551 | 48 | 313 | 3.5 | 7.0 | 0.00 | 0.00 | 0.00 | 62 | 1007.1 |
| 20260504081024 | 48 | 283 | 3.5 | 9.6 | 0.00 | 0.00 | 0.00 | 63 | 1007.1 |
| 20260504080523 | 47 | 234 | 6.1 | 9.6 | 0.00 | 0.00 | 0.00 | 64 | 1007.1 |
| 20260504050524 | 54 | 136 | 2.6 | 5.2 | 0.00 | 0.00 | 0.00 | 54 | 1008.4 |
| 20260504045523 | 54 | 108 | 4.3 | 7.0 | 0.00 | 0.00 | 0.00 | 54 | 1008.5 |
| 20260504045020 | 54 | 106 | 3.5 | 7.0 | 0.00 | 0.00 | 0.00 | 54 | 1008.5 |
| 20260504044541 | 55 | 119 | 4.3 | 7.0 | 0.00 | 0.00 | 0.00 | 55 | 1008.5 |
| 20260504044022 | 55 | 128 | 5.2 | 7.8 | 0.00 | 0.00 | 0.00 | 56 | 1008.5 |
| 20260504043521 | 55 | 133 | 6.1 | 8.7 | 0.00 | 0.00 | 0.00 | 53 | 1008.6 |
| 20260504043038 | 55 | 126 | 7.0 | 8.7 | 0.00 | 0.00 | 0.00 | 53 | 1008.6 |
| 20260504042523 | 55 | 128 | 6.1 | 8.7 | 0.00 | 0.00 | 0.00 | 52 | 1008.7 |
| 20260504042022 | 55 | 116 | 6.1 | 7.8 | 0.00 | 0.00 | 0.00 | 51 | 1008.7 |
| 20260504041536 | 55 | 92 | 6.1 | 8.7 | 0.00 | 0.00 | 0.00 | 51 | 1008.7 |
| 20260504041023 | 55 | 98 | 7.0 | 9.6 | 0.00 | 0.00 | 0.00 | 51 | 1008.7 |
| 20260504040522 | 55 | 100 | 7.0 | 9.6 | 0.00 | 0.00 | 0.00 | 51 | 1008.8 |
| 20260504040106 | 55 | 101 | 7.0 | 9.6 | 0.00 | 0.00 | 0.00 | 51 | 1008.9 |
| 20260504035525 | 55 | 114 | 5.2 | 7.0 | 0.00 | 0.00 | 0.00 | 52 | 1009.0 |
| 20260504035023 | 55 | 114 | 5.2 | 7.8 | 0.00 | 0.00 | 0.00 | 51 | 1009.0 |
| 20260504034541 | 56 | 112 | 5.2 | 8.7 | 0.00 | 0.00 | 0.00 | 51 | 1009.1 |
| 20260504034021 | 56 | 103 | 7.0 | 8.7 | 0.00 | 0.00 | 0.00 | 50 | 1009.1 |
| 20260504033523 | 56 | 90 | 7.0 | 8.7 | 0.00 | 0.00 | 0.00 | 49 | 1009.1 |
| 20260504033038 | 56 | 90 | 6.1 | 8.7 | 0.00 | 0.00 | 0.00 | 48 | 1009.0 |
| 20260504032526 | 56 | 93 | 6.1 | 7.0 | 0.00 | 0.00 | 0.00 | 47 | 1008.9 |
| 20260504032025 | 56 | 88 | 5.2 | 6.1 | 0.00 | 0.00 | 0.00 | 46 | 1008.9 |
| 20260504031539 | 56 | 94 | 3.5 | 7.0 | 0.00 | 0.00 | 0.00 | 46 | 1009.0 |
| 20260504031020 | 57 | 97 | 4.3 | 7.8 | 0.00 | 0.00 | 0.00 | 46 | 1009.1 |
| 20260504030523 | 57 | 92 | 6.1 | 7.8 | 0.00 | 0.00 | 0.00 | 45 | 1009.2 |
| 20260504030038 | 58 | 82 | 6.1 | 7.8 | 0.00 | 0.00 | 0.00 | 44 | 1008.9 |
| 20260504025523 | 58 | 73 | 7.0 | 7.8 | 0.00 | 0.00 | 0.00 | 44 | 1008.9 |
| 20260504025024 | 59 | 70 | 7.0 | 7.8 | 0.00 | 0.00 | 0.00 | 42 | 1008.9 |
| 20260504024538 | 60 | 70 | 5.2 | 8.7 | 0.00 | 0.00 | 0.00 | 42 | 1008.9 |
| 20260504024025 | 61 | 71 | 5.2 | 9.6 | 0.00 | 0.00 | 0.00 | 41 | 1008.9 |
| 20260504023523 | 62 | 65 | 7.8 | 10.4 | 0.00 | 0.00 | 0.00 | 39 | 1008.9 |
| 20260504023047 | 63 | 59 | 8.7 | 11.3 | 0.00 | 0.00 | 0.00 | 37 | 1008.8 |
| 20260504022524 | 64 | 55 | 9.6 | 11.3 | 0.00 | 0.00 | 0.00 | 36 | 1008.8 |
| 20260504022025 | 64 | 52 | 9.6 | 10.4 | 0.00 | 0.00 | 0.00 | 35 | 1008.9 |
| 20260504021540 | 65 | 53 | 7.0 | 9.6 | 0.00 | 0.00 | 0.00 | 35 | 1008.7 |
| 20260504021024 | 66 | 51 | 7.8 | 9.6 | 0.00 | 0.00 | 0.00 | 34 | 1008.8 |
| 20260504020523 | 66 | 55 | 6.1 | 8.7 | 0.00 | 0.00 | 0.00 | 33 | 1008.7 |
| 20260504020039 | 66 | 50 | 6.1 | 7.8 | 0.00 | 0.00 | 0.00 | 33 | 1008.6 |
| 20260504015523 | 67 | 48 | 6.1 | 7.8 | 0.00 | 0.00 | 0.00 | 33 | 1008.6 |
| 20260504015023 | 67 | 49 | 5.2 | 7.8 | 0.00 | 0.00 | 0.00 | 33 | 1008.6 |
| 20260504014550 | 67 | 58 | 6.1 | 7.8 | 0.00 | 0.00 | 0.00 | 33 | 1008.6 |
| 20260504014022 | 67 | 62 | 5.2 | 7.8 | 0.00 | 0.00 | 0.00 | 33 | 1008.5 |
| 20260504013523 | 68 | 67 | 7.0 | 7.8 | 0.00 | 0.00 | 0.00 | 34 | 1008.5 |
| 20260504013039 | 69 | 67 | 7.0 | 9.6 | 0.00 | 0.00 | 0.00 | 34 | 1008.5 |
| 20260504012521 | 69 | 61 | 7.8 | 9.6 | 0.00 | 0.00 | 0.00 | 33 | 1008.6 |
| 20260504012025 | 70 | 64 | 7.0 | 7.8 | 0.00 | 0.00 | 0.00 | 33 | 1008.6 |
| 20260504011540 | 72 | 69 | 4.3 | 7.0 | 0.00 | 0.00 | 0.00 | 35 | 1008.5 |
| 20260504011024 | 73 | 71 | 5.2 | 7.0 | 0.00 | 0.00 | 0.00 | 34 | 1008.5 |
| 20260504010522 | 73 | 71 | 5.2 | 7.0 | 0.00 | 0.00 | 0.00 | 32 | 1008.4 |
| 20260504010035 | 74 | 72 | 3.5 | 7.8 | 0.00 | 0.00 | 0.00 | 31 | 1008.5 |
| 20260504005523 | 74 | 82 | 6.1 | 7.8 | 0.00 | 0.00 | 0.00 | 31 | 1008.6 |
| 20260504005023 | 75 | 97 | 5.2 | 7.0 | 0.00 | 0.00 | 0.00 | 31 | 1008.5 |
| 20260504004545 | 75 | 92 | 3.5 | 6.1 | 0.00 | 0.00 | 0.00 | 30 | 1008.6 |
| 20260504004023 | 75 | 92 | 4.3 | 6.1 | 0.00 | 0.00 | 0.00 | 29 | 1008.6 |
| 20260504003527 | 75 | 86 | 4.3 | 6.1 | 0.00 | 0.00 | 0.00 | 28 | 1008.7 |
| 20260504003040 | 74 | 76 | 2.6 | 4.3 | 0.00 | 0.00 | 0.00 | 28 | 1008.7 |
| 20260504002521 | 75 | 69 | 3.5 | 7.0 | 0.00 | 0.00 | 0.00 | 27 | 1008.7 |
| 20260504002023 | 75 | 69 | 3.5 | 7.8 | 0.00 | 0.00 | 0.00 | 26 | 1008.7 |
| 20260504001551 | 75 | 88 | 6.1 | 7.8 | 0.00 | 0.00 | 0.00 | 26 | 1008.8 |
| 20260504001023 | 76 | 84 | 5.2 | 7.8 | 0.00 | 0.00 | 0.00 | 25 | 1008.9 |
| 20260504000523 | 77 | 65 | 4.3 | 7.8 | 0.00 | 0.00 | 0.00 | 24 | 1008.9 |
| 20260504000038 | 77 | 44 | 4.3 | 7.8 | 0.00 | 0.00 | 0.00 | 23 | 1008.9 |
| 20260503235522 | 77 | 67 | 2.6 | 6.1 | 0.00 | 0.00 | 0.00 | 23 | 1009.0 |